Location: Recife
(8.0585°S, 34.8848°W)
Time: 06:28:31
(UTC-03:00)

Vanguard 3 - Pass Details

Date: 15 April 2026
Orbit: 507 x 3205 km, 33.4° (Epoch: 13 May)

Event Time Altitude Azimuth Distance (km) Brightness Sun altitude
Rises 19:41:42 0° 258° (WSW) 5,456 12.3 -36.3°
Reaches altitude 10° 19:47:17 10° 273° (W) 3,858 11.3 -37.6°
Maximum altitude 19:53:12 18° 312° (NW) 2,612 10.1 -39.1°
Enters shadow 19:56:27 13° 344° (NNW) 2,556 9.8 -39.9°
Drops below altitude 10° 19:57:32 10° 354° (N) 2,675 - -40.1°
Sets 20:00:30 0° 14° (NNE) 3,285 - -40.9°
